| time (UTC) | temp F | wind direction | speed MPH | gust MPH | rain 1hr in | rain 24hr in | rain mn in | humidity % | barometer mb |
| 20260504215123 | 71 | 232 | 3.0 | 9.0 | 0.00 | 0.00 | 0.00 | 38 | 1011.8 |
| 20260504214905 | 71 | 217 | 3.0 | 9.0 | 0.00 | 0.00 | 0.00 | 37 | 1011.8 |
| 20260504214120 | 71 | 121 | 3.0 | 9.0 | 0.00 | 0.00 | 0.00 | 38 | 1011.7 |
| 20260504213620 | 71 | 240 | 4.0 | 9.0 | 0.00 | 0.00 | 0.00 | 37 | 1011.8 |
| 20260504213116 | 71 | 212 | 4.0 | 8.0 | 0.00 | 0.00 | 0.00 | 36 | 1011.8 |
| 20260504212616 | 71 | 251 | 3.0 | 11.0 | 0.00 | 0.00 | 0.00 | 36 | 1011.8 |
| 20260504212115 | 71 | 163 | 3.0 | 11.0 | 0.00 | 0.00 | 0.00 | 37 | 1011.9 |
| 20260504211617 | 71 | 194 | 3.0 | 9.0 | 0.00 | 0.00 | 0.00 | 37 | 1011.8 |
| 20260504211116 | 71 | 222 | 3.0 | 11.0 | 0.00 | 0.00 | 0.00 | 37 | 1011.7 |
| 20260504210616 | 71 | 173 | 3.0 | 11.0 | 0.00 | 0.00 | 0.00 | 37 | 1011.7 |
| 20260504210116 | 71 | 157 | 3.0 | 10.0 | 0.00 | 0.00 | 0.00 | 37 | 1011.8 |
| 20260504205617 | 71 | 219 | 4.0 | 10.0 | 0.00 | 0.00 | 0.00 | 36 | 1011.7 |
| 20260504205111 | 72 | 223 | 4.0 | 13.0 | 0.00 | 0.00 | 0.00 | 35 | 1011.7 |
| 20260504204617 | 72 | 113 | 4.0 | 15.0 | 0.00 | 0.00 | 0.00 | 34 | 1011.8 |
| 20260504204609 | 72 | 168 | 4.0 | 13.0 | 0.00 | 0.00 | 0.00 | 36 | 1011.7 |
| 20260504203606 | 72 | 201 | 4.0 | 15.0 | 0.00 | 0.00 | 0.00 | 36 | 1011.8 |
| 20260504203105 | 72 | 237 | 5.0 | 15.0 | 0.00 | 0.00 | 0.00 | 34 | 1011.7 |
| 20260504202604 | 72 | 128 | 5.0 | 15.0 | 0.00 | 0.00 | 0.00 | 34 | 1012.0 |
| 20260504202104 | 73 | 202 | 4.0 | 12.0 | 0.00 | 0.00 | 0.00 | 34 | 1011.9 |
| 20260504201604 | 73 | 165 | 4.0 | 11.0 | 0.00 | 0.00 | 0.00 | 36 | 1012.0 |
| 20260504201106 | 73 | 205 | 3.0 | 15.0 | 0.00 | 0.00 | 0.00 | 35 | 1012.1 |
| 20260504200605 | 72 | 283 | 3.0 | 15.0 | 0.00 | 0.00 | 0.00 | 34 | 1012.1 |
| 20260504200337 | 72 | 291 | 5.0 | 17.0 | 0.00 | 0.00 | 0.00 | 38 | 1012.1 |
| 20260504195605 | 72 | 154 | 6.0 | 19.0 | 0.00 | 0.00 | 0.00 | 34 | 1012.1 |
| 20260504195104 | 72 | 211 | 5.0 | 19.0 | 0.00 | 0.00 | 0.00 | 34 | 1012.2 |
| 20260504194603 | 72 | 241 | 5.0 | 14.0 | 0.00 | 0.00 | 0.00 | 36 | 1012.4 |
| 20260504194104 | 73 | 90 | 5.0 | 12.0 | 0.00 | 0.00 | 0.00 | 34 | 1012.5 |
| 20260504193604 | 73 | 209 | 5.0 | 12.0 | 0.00 | 0.00 | 0.00 | 35 | 1012.5 |
| 20260504193339 | 73 | 204 | 4.0 | 11.0 | 0.00 | 0.00 | 0.00 | 35 | 1012.6 |
| 20260504192605 | 73 | 180 | 4.0 | 11.0 | 0.00 | 0.00 | 0.00 | 35 | 1012.5 |
| 20260504192104 | 73 | 300 | 4.0 | 9.0 | 0.00 | 0.00 | 0.00 | 35 | 1012.6 |
| 20260504191605 | 73 | 219 | 4.0 | 10.0 | 0.00 | 0.00 | 0.00 | 35 | 1012.7 |
| 20260504191104 | 73 | 227 | 4.0 | 10.0 | 0.00 | 0.00 | 0.00 | 33 | 1012.8 |
| 20260504190605 | 73 | 304 | 4.0 | 16.0 | 0.00 | 0.00 | 0.00 | 34 | 1012.7 |
| 20260504190104 | 73 | 227 | 4.0 | 16.0 | 0.00 | 0.00 | 0.00 | 34 | 1012.8 |
| 20260504185604 | 73 | 198 | 4.0 | 17.0 | 0.00 | 0.00 | 0.00 | 34 | 1012.9 |
| 20260504185121 | 73 | 257 | 3.0 | 9.0 | 0.00 | 0.00 | 0.00 | 35 | 1012.8 |
| 20260504185109 | 73 | 184 | 4.0 | 17.0 | 0.00 | 0.00 | 0.00 | 34 | 1012.9 |
| 20260504184104 | 73 | 229 | 3.0 | 9.0 | 0.00 | 0.00 | 0.00 | 35 | 1012.9 |
| 20260504183601 | 73 | 267 | 3.0 | 9.0 | 0.00 | 0.00 | 0.00 | 33 | 1013.0 |
| 20260504183334 | 73 | 279 | 3.0 | 9.0 | 0.00 | 0.00 | 0.00 | 35 | 1013.1 |
| 20260504182600 | 72 | 236 | 3.0 | 12.0 | 0.00 | 0.00 | 0.00 | 34 | 1013.2 |
| 20260504182103 | 72 | 235 | 4.0 | 12.0 | 0.00 | 0.00 | 0.00 | 35 | 1013.1 |
| 20260504181601 | 72 | 154 | 4.0 | 12.0 | 0.00 | 0.00 | 0.00 | 37 | 1013.2 |
| 20260504181101 | 71 | 229 | 3.0 | 12.0 | 0.00 | 0.00 | 0.00 | 34 | 1013.4 |
| 20260504180603 | 71 | 196 | 3.0 | 8.0 | 0.00 | 0.00 | 0.00 | 35 | 1013.4 |
| 20260504180101 | 71 | 122 | 4.0 | 11.0 | 0.00 | 0.00 | 0.00 | 34 | 1013.5 |
| 20260504175601 | 71 | 232 | 4.0 | 11.0 | 0.00 | 0.00 | 0.00 | 35 | 1013.7 |
| 20260504175119 | 70 | 162 | 5.0 | 15.0 | 0.00 | 0.00 | 0.00 | 33 | 1013.8 |
| 20260504175110 | 70 | 240 | 5.0 | 11.0 | 0.00 | 0.00 | 0.00 | 37 | 1013.8 |
| 20260504174101 | 70 | 223 | 5.0 | 15.0 | 0.00 | 0.00 | 0.00 | 36 | 1013.8 |
| 20260504173601 | 70 | 212 | 4.0 | 12.0 | 0.00 | 0.00 | 0.00 | 34 | 1014.0 |
| 20260504173336 | 70 | 217 | 2.0 | 9.0 | 0.00 | 0.00 | 0.00 | 37 | 1013.8 |
| 20260504172603 | 70 | 82 | 3.0 | 8.0 | 0.00 | 0.00 | 0.00 | 38 | 1013.8 |
| 20260504172101 | 70 | 258 | 4.0 | 8.0 | 0.00 | 0.00 | 0.00 | 37 | 1014.0 |
| 20260504171602 | 69 | 228 | 4.0 | 11.0 | 0.00 | 0.00 | 0.00 | 36 | 1014.0 |
| 20260504171100 | 69 | 243 | 5.0 | 11.0 | 0.00 | 0.00 | 0.00 | 38 | 1014.1 |
| 20260504170601 | 69 | 195 | 5.0 | 14.0 | 0.00 | 0.00 | 0.00 | 37 | 1014.2 |
| 20260504160122 | 65 | 192 | 4.0 | 12.0 | 0.00 | 0.00 | 0.00 | 39 | 1015.2 |
| 20260504160113 | 65 | 248 | 4.0 | 12.0 | 0.00 | 0.00 | 0.00 | 40 | 1015.0 |
| 20260504151102 | 62 | 149 | 3.0 | 11.0 | 0.00 | 0.00 | 0.00 | 53 | 1015.6 |
| 20260504150558 | 61 | 255 | 3.0 | 12.0 | 0.00 | 0.00 | 0.00 | 53 | 1015.4 |
| 20260504141031 | 58 | 152 | 3.0 | 10.0 | 0.00 | 0.00 | 0.00 | 61 | 1015.9 |
| 20260504140530 | 57 | 232 | 2.0 | 10.0 | 0.00 | 0.00 | 0.00 | 62 | 1015.8 |
| 20260504130802 | 53 | 136 | 3.0 | 10.0 | 0.00 | 0.00 | 0.00 | 73 | 1016.2 |
| 20260504100501 | 40 | 219 | 0.0 | 0.0 | 0.00 | 0.00 | 0.00 | 88 | 1016.9 |
| 20260504081937 | 41 | 219 | 0.0 | 0.0 | 0.00 | 0.00 | 0.00 | 87 | 1016.8 |
| 20260504081436 | 41 | 219 | 0.0 | 0.0 | 0.00 | 0.00 | 0.00 | 87 | 1016.8 |
| 20260504080934 | 41 | 219 | 0.0 | 2.0 | 0.00 | 0.00 | 0.00 | 87 | 1016.7 |
| 20260504080436 | 41 | 219 | 0.0 | 2.0 | 0.00 | 0.00 | 0.00 | 87 | 1016.8 |
| 20260504080207 | 41 | 219 | 0.0 | 3.0 | 0.00 | 0.00 | 0.00 | 87 | 1016.8 |
| 20260504050408 | 42 | 238 | 0.0 | 0.0 | 0.00 | 0.00 | 0.00 | 80 | 1016.7 |
| 20260504045906 | 42 | 237 | 0.0 | 0.0 | 0.00 | 0.00 | 0.00 | 79 | 1016.7 |
| 20260504045406 | 42 | 237 | 0.0 | 3.0 | 0.00 | 0.00 | 0.00 | 79 | 1016.8 |
| 20260504044901 | 42 | 251 | 0.0 | 3.0 | 0.00 | 0.00 | 0.00 | 79 | 1016.8 |
| 20260504044640 | 42 | 252 | 1.0 | 3.0 | 0.00 | 0.00 | 0.00 | 79 | 1016.7 |
| 20260504043902 | 42 | 252 | 0.0 | 3.0 | 0.00 | 0.00 | 0.00 | 78 | 1016.8 |
| 20260504043401 | 42 | 252 | 0.0 | 0.0 | 0.00 | 0.00 | 0.00 | 76 | 1016.7 |
| 20260504042901 | 42 | 252 | 0.0 | 0.0 | 0.00 | 0.00 | 0.00 | 76 | 1016.5 |
| 20260504042401 | 42 | 252 | 0.0 | 0.0 | 0.00 | 0.00 | 0.00 | 76 | 1016.5 |
| 20260504041901 | 42 | 252 | 0.0 | 1.0 | 0.00 | 0.00 | 0.00 | 75 | 1016.4 |
| 20260504041403 | 42 | 252 | 0.0 | 1.0 | 0.00 | 0.00 | 0.00 | 75 | 1016.4 |
| 20260504040901 | 42 | 252 | 0.0 | 1.0 | 0.00 | 0.00 | 0.00 | 75 | 1016.3 |
| 20260504040402 | 42 | 252 | 0.0 | 2.0 | 0.00 | 0.00 | 0.00 | 75 | 1016.3 |
| 20260504035858 | 43 | 252 | 0.0 | 2.0 | 0.00 | 0.00 | 0.00 | 75 | 1016.3 |
| 20260504035400 | 43 | 252 | 0.0 | 0.0 | 0.00 | 0.00 | 0.00 | 75 | 1016.2 |
| 20260504034859 | 43 | 252 | 0.0 | 0.0 | 0.00 | 0.00 | 0.00 | 74 | 1016.2 |
| 20260504034400 | 43 | 252 | 0.0 | 0.0 | 0.00 | 0.00 | 0.00 | 74 | 1016.3 |
| 20260504033900 | 43 | 252 | 0.0 | 0.0 | 0.00 | 0.00 | 0.00 | 73 | 1016.2 |
| 20260504033400 | 43 | 252 | 0.0 | 0.0 | 0.00 | 0.00 | 0.00 | 73 | 1016.3 |
| 20260504032901 | 43 | 252 | 0.0 | 0.0 | 0.00 | 0.00 | 0.00 | 72 | 1016.3 |
| 20260504032357 | 43 | 252 | 0.0 | 0.0 | 0.00 | 0.00 | 0.00 | 72 | 1016.2 |
| 20260504031856 | 44 | 252 | 0.0 | 0.0 | 0.00 | 0.00 | 0.00 | 72 | 1016.2 |
| 20260504031351 | 44 | 252 | 0.0 | 0.0 | 0.00 | 0.00 | 0.00 | 71 | 1016.1 |
| 20260504030844 | 44 | 252 | 0.0 | 0.0 | 0.00 | 0.00 | 0.00 | 70 | 1016.2 |
| 20260504030340 | 44 | 252 | 0.0 | 0.0 | 0.00 | 0.00 | 0.00 | 70 | 1016.1 |
| 20260504025839 | 44 | 252 | 0.0 | 0.0 | 0.00 | 0.00 | 0.00 | 70 | 1016.1 |
| 20260504025338 | 44 | 252 | 0.0 | 0.0 | 0.00 | 0.00 | 0.00 | 70 | 1016.1 |
| 20260504024836 | 44 | 252 | 0.0 | 0.0 | 0.00 | 0.00 | 0.00 | 69 | 1016.1 |
| 20260504024333 | 44 | 252 | 0.0 | 0.0 | 0.00 | 0.00 | 0.00 | 69 | 1016.2 |
| 20260504023832 | 45 | 252 | 0.0 | 0.0 | 0.00 | 0.00 | 0.00 | 69 | 1016.2 |
| 20260504023601 | 45 | 252 | 0.0 | 0.0 | 0.00 | 0.00 | 0.00 | 69 | 1016.2 |
| 20260504022831 | 45 | 252 | 0.0 | 0.0 | 0.00 | 0.00 | 0.00 | 69 | 1016.1 |
| 20260504022329 | 45 | 252 | 0.0 | 0.0 | 0.00 | 0.00 | 0.00 | 68 | 1016.1 |
| 20260504021829 | 45 | 252 | 0.0 | 0.0 | 0.00 | 0.00 | 0.00 | 67 | 1016.0 |
| 20260504021329 | 45 | 252 | 0.0 | 0.0 | 0.00 | 0.00 | 0.00 | 67 | 1016.0 |
| 20260504021105 | 46 | 252 | 0.0 | 0.0 | 0.00 | 0.00 | 0.00 | 67 | 1016.1 |
| 20260504020329 | 46 | 252 | 0.0 | 0.0 | 0.00 | 0.00 | 0.00 | 67 | 1016.1 |
| 20260504015329 | 46 | 252 | 0.0 | 0.0 | 0.00 | 0.00 | 0.00 | 67 | 1016.0 |
| 20260504014830 | 46 | 252 | 0.0 | 0.0 | 0.00 | 0.00 | 0.00 | 65 | 1016.0 |
| 20260504014329 | 47 | 252 | 0.0 | 0.0 | 0.00 | 0.00 | 0.00 | 64 | 1015.8 |
| 20260504014100 | 47 | 252 | 0.0 | 0.0 | 0.00 | 0.00 | 0.00 | 64 | 1015.8 |
| 20260504013604 | 47 | 252 | 0.0 | 0.0 | 0.00 | 0.00 | 0.00 | 63 | 1015.8 |
| 20260504012830 | 47 | 252 | 0.0 | 0.0 | 0.00 | 0.00 | 0.00 | 64 | 1015.9 |
| 20260504012329 | 48 | 252 | 0.0 | 0.0 | 0.00 | 0.00 | 0.00 | 62 | 1015.9 |
| 20260504011830 | 48 | 252 | 0.0 | 0.0 | 0.00 | 0.00 | 0.00 | 61 | 1015.7 |
| 20260504011334 | 48 | 252 | 0.0 | 0.0 | 0.00 | 0.00 | 0.00 | 62 | 1015.7 |
| 20260504010830 | 49 | 252 | 0.0 | 0.0 | 0.00 | 0.00 | 0.00 | 59 | 1015.6 |
| 20260504010331 | 49 | 252 | 0.0 | 0.0 | 0.00 | 0.00 | 0.00 | 57 | 1015.4 |
| 20260504005830 | 49 | 252 | 0.0 | 0.0 | 0.00 | 0.00 | 0.00 | 56 | 1015.4 |
| 20260504005330 | 50 | 252 | 0.0 | 0.0 | 0.00 | 0.00 | 0.00 | 54 | 1015.3 |
| 20260504004829 | 51 | 252 | 0.0 | 0.0 | 0.00 | 0.00 | 0.00 | 55 | 1015.4 |
| 20260504004611 | 52 | 252 | 0.0 | 0.0 | 0.00 | 0.00 | 0.00 | 53 | 1015.3 |
| 20260504004606 | 51 | 252 | 0.0 | 0.0 | 0.00 | 0.00 | 0.00 | 55 | 1015.2 |
| 20260504003329 | 52 | 252 | 0.0 | 0.0 | 0.00 | 0.00 | 0.00 | 51 | 1015.2 |
| 20260504002843 | 53 | 252 | 0.0 | 0.0 | 0.00 | 0.00 | 0.00 | 47 | 1015.0 |
| 20260504002836 | 53 | 252 | 0.0 | 0.0 | 0.00 | 0.00 | 0.00 | 50 | 1015.0 |
| 20260504001830 | 54 | 252 | 0.0 | 0.0 | 0.00 | 0.00 | 0.00 | 46 | 1014.9 |
| 20260504001612 | 54 | 252 | 0.0 | 0.0 | 0.00 | 0.00 | 0.00 | 44 | 1014.8 |
| 20260504001333 | 54 | 252 | 0.0 | 0.0 | 0.00 | 0.00 | 0.00 | 44 | 1014.8 |
| 20260504000323 | 54 | 252 | 0.0 | 3.0 | 0.00 | 0.00 | 0.00 | 44 | 1014.7 |
| 20260503235817 | 55 | 252 | 1.0 | 3.0 | 0.00 | 0.00 | 0.00 | 43 | 1014.7 |
| 20260503235316 | 55 | 252 | 1.0 | 3.0 | 0.00 | 0.00 | 0.00 | 43 | 1014.6 |
| 20260503235050 | 55 | 252 | 1.0 | 3.0 | 0.00 | 0.00 | 0.00 | 44 | 1014.7 |
| 20260503234312 | 55 | 311 | 1.0 | 3.0 | 0.00 | 0.00 | 0.00 | 43 | 1014.7 |
| 20260503233813 | 56 | 267 | 1.0 | 5.0 | 0.00 | 0.00 | 0.00 | 42 | 1014.5 |
| 20260503233544 | 56 | 271 | 1.0 | 5.0 | 0.00 | 0.00 | 0.00 | 42 | 1014.5 |
| 20260503232810 | 56 | 250 | 1.0 | 6.0 | 0.00 | 0.00 | 0.00 | 41 | 1014.5 |
| 20260503232310 | 56 | 323 | 1.0 | 6.0 | 0.00 | 0.00 | 0.00 | 41 | 1014.4 |
| 20260503231805 | 56 | 266 | 1.0 | 4.0 | 0.00 | 0.00 | 0.00 | 42 | 1014.3 |
| 20260503231308 | 56 | 288 | 2.0 | 5.0 | 0.00 | 0.00 | 0.00 | 41 | 1014.4 |
| 20260503230806 | 57 | 258 | 2.0 | 5.0 | 0.00 | 0.00 | 0.00 | 39 | 1014.4 |
| 20260503230306 | 57 | 334 | 2.0 | 6.0 | 0.00 | 0.00 | 0.00 | 41 | 1014.4 |
| 20260503225806 | 57 | 294 | 2.0 | 6.0 | 0.00 | 0.00 | 0.00 | 40 | 1014.3 |
| 20260503225304 | 57 | 267 | 2.0 | 6.0 | 0.00 | 0.00 | 0.00 | 39 | 1014.3 |
| 20260503224805 | 57 | 263 | 2.0 | 6.0 | 0.00 | 0.00 | 0.00 | 37 | 1014.3 |
| 20260503224303 | 57 | 278 | 2.0 | 11.0 | 0.00 | 0.00 | 0.00 | 39 | 1014.4 |
| 20260503223804 | 57 | 82 | 3.0 | 11.0 | 0.00 | 0.00 | 0.00 | 37 | 1014.3 |
| 20260503223543 | 57 | 338 | 3.0 | 11.0 | 0.00 | 0.00 | 0.00 | 37 | 1014.3 |
| 20260503222801 | 57 | 270 | 4.0 | 23.0 | 0.00 | 0.00 | 0.00 | 37 | 1014.3 |
| 20260503222304 | 57 | 12 | 4.0 | 23.0 | 0.00 | 0.00 | 0.00 | 36 | 1014.3 |
| 20260503221801 | 58 | 295 | 4.0 | 15.0 | 0.00 | 0.00 | 0.00 | 37 | 1014.4 |
| 20260503221302 | 58 | 290 | 3.0 | 11.0 | 0.00 | 0.00 | 0.00 | 37 | 1014.3 |
| 20260503220801 | 58 | 321 | 3.0 | 9.0 | 0.00 | 0.00 | 0.00 | 37 | 1014.4 |
| 20260503220301 | 58 | 310 | 3.0 | 10.0 | 0.00 | 0.00 | 0.00 | 35 | 1014.4 |
| 20260503215801 | 58 | 255 | 3.0 | 10.0 | 0.00 | 0.00 | 0.00 | 35 | 1014.3 |
| 20260503215304 | 58 | 175 | 3.0 | 14.0 | 0.00 | 0.00 | 0.00 | 37 | 1014.3 |